Location: DaltonSkyGazer Observatory
(42.4858°N, 73.1565°W)
Time: 12:49:21
(UTC-04:00)

Daily predictions for brighter satellites

Satellite Brightness Start Highest point End
(mag) Time Altitude Azimuth Time Altitude Azimuth Time Altitude Azimuth
Cosmos 1812 3.8 20:44:45 10° SSW 20:48:31 49° W 20:52:19 10° N
Cosmos 1709 Rocket 4.2 20:45:51 10° N 20:52:09 78° W 20:58:19 10° S
Cosmos 1743 3.3 20:49:26 10° N 20:53:07 41° ENE 20:56:49 10° SSE
Iridium 4 Rocket 3.9 20:49:51 10° N 20:54:47 70° W 21:00:09 10° S
Cosmos 1346 4.2 20:52:57 10° SSE 20:55:11 22° E 20:57:26 10° NE
Envisat 3.1 20:51:32 10° SSE 20:56:37 89° W 21:01:44 10° NNW
Spot 1 4.2 20:54:54 10° SSE 20:59:30 90° WSW 21:03:51 10° NNW
ASTRO E2 4.5 20:58:06 10° SW 21:00:41 17° S 21:03:16 10° SE
ASTEX 1 4.0 20:57:42 10° SE 21:02:15 39° ENE 21:06:48 10° N
Aureole 3 Rocket 4.0 20:56:35 10° SSE 21:03:05 50° E 21:07:47 10° NNE
Tiangong 2 2.4 21:08:28 10° SSW 21:11:00 22° SSE 21:13:18 11° E
Aureole 1 Rocket 3.2 21:09:35 10° SSE 21:12:35 28° ESE 21:15:16 10° NE
NOSS 2-2 (E) 3.4 21:09:41 10° SSW 21:13:42 83° SE 21:18:24 10° NE
Cosmos 1238 Rocket 4.5 21:08:48 10° SSE 21:15:07 46° E 21:21:22 10° NNE
DNEPR-1 R/B 3.9 21:12:27 10° NNW 21:16:36 52° NE 21:20:18 14° SE
Meteor 2-4 Rocket 3.9 21:15:03 10° S 21:20:27 53° E 21:26:04 10° NNE
ISS -2.7 21:20:38 10° SSW 21:23:21 24° SE 21:26:05 10° E
Cosmos 1666 2.7 21:20:04 10° N 21:23:48 63° E 21:26:56 14° SSE
Meteor 2-13 Rocket 4.4 21:19:40 10° N 21:25:46 80° E 21:31:50 10° S
OAO 2 Rocket 4.1 21:23:19 10° SW 21:27:42 32° S 21:31:02 16° ESE
Cosmos 923 Rocket 4.0 21:22:39 10° SSW 21:27:59 88° ESE 21:33:19 10° NNE
Cosmos 2184 Rocket 4.1 21:25:53 10° N 21:32:17 89° E 21:38:35 10° S
Cosmos 2074 Rocket 4.0 21:26:13 10° N 21:32:29 87° W 21:38:45 10° S
Cosmos 1536 Rocket 4.5 21:28:59 10° SSW 21:33:10 50° W 21:37:24 10° N
CZ-3A R/B 2.2 21:30:12 10° SSW 21:33:08 19° SSE 21:33:08 19° SSE
Cosmos 1437 4.3 21:32:20 10° SW 21:35:21 37° WNW 21:38:23 10° N
CZ-4B DEB 4.4 21:32:43 10° SSW 21:35:21 28° W 21:38:01 10° NW
Lacrosse 5 rocket 4.5 21:35:48 10° NW 21:38:16 14° N 21:40:45 10° NNE
Cosmos 1606 Rocket 4.4 21:35:33 10° N 21:39:30 33° ENE 21:41:41 21° SE
USA 245 3.3 21:38:45 26° ESE 21:39:33 32° ENE 21:41:49 10° N
Intercosmos 24 4.0 21:37:05 10° N 21:41:06 51° ENE 21:43:05 23° SE
YAOGAN 11 4.1 21:40:59 20° SSE 21:43:53 64° ENE 21:48:09 10° N
Cosmos 1656 Rocket 4.2 21:39:44 10° NNW 21:45:03 55° WSW 21:49:50 13° S
YAOGAN 6 3.6 21:42:08 10° S 21:45:27 41° W 21:48:48 10° NNW
ERS-1 Rocket 3.1 21:41:29 12° S 21:46:06 72° WSW 21:51:09 10° NNW
MetOp-A 4.1 21:45:09 16° SSE 21:49:32 90° ESE 21:54:55 10° NNW
Meteor 1-23 Rocket 4.1 21:44:06 10° S 21:49:37 72° E 21:55:13 10° NNE
Cosmos 1726 Rocket 4.3 21:46:29 10° N 21:50:29 36° ENE 21:52:23 24° SE
MOS 1-B Rocket 3.9 21:46:03 16° SSE 21:50:42 86° ENE 21:57:04 10° NNW
Cosmos 405 Rocket 4.0 21:48:50 10° SSW 21:52:22 40° WNW 21:56:00 10° N
GENESIS II 4.1 21:49:05 10° NW 21:53:03 85° WSW 21:55:01 28° SSE
Cosmos 1515 4.5 21:53:03 27° SE 21:54:07 33° E 21:57:33 10° NNE
H-2A R/B 2.4 21:52:51 23° SE 21:55:38 48° ENE 22:00:26 10° N
Cosmos 1980 Rocket 4.4 21:53:43 10° NNE 21:56:26 13° NE 21:59:09 10° ENE
Cosmos 2058 Rocket 4.0 21:52:56 10° NNE 21:56:55 32° ENE 21:58:34 25° ESE
Meteor 1-15 Rocket 4.2 21:52:09 10° N 21:57:46 74° E 22:01:26 22° SSE
Cosmos 1943 Rocket 4.5 21:57:02 10° WNW 22:00:39 18° W 22:04:15 10° SW
Cosmos 2112 Rocket 4.2 21:55:36 10° SSW 22:00:49 73° WNW 22:06:02 10° NNE
Cosmos 192 4.3 21:56:33 10° SSW 22:01:28 85° WNW 22:06:23 10° NNE
Cosmos 1025 Rocket 2.9 21:58:34 15° S 22:02:05 87° W 22:06:22 10° N
CENTAUR R/B 3.6 21:55:04 10° NW 22:02:46 54° WSW 22:09:18 17° S
Cosmos 1441 Rocket 3.8 22:01:24 10° SSW 22:05:04 55° WNW 22:08:46 10° N
Cosmos 1624 Rocket 4.1 22:02:57 10° NNW 22:08:14 68° ENE 22:10:57 29° SE
Nadezhda 1 Rocket 4.4 22:01:57 10° SSW 22:08:14 67° W 22:14:39 10° N
PSLV R/B 3.0 22:07:18 10° W 22:10:23 58° S 22:10:40 55° SSE
Cosmos 2154 Rocket 4.1 22:09:31 10° N 22:15:53 79° W 22:20:26 20° S
SL-08 RB Rocket 3.7 22:14:43 29° S 22:17:00 80° WSW 22:21:30 10° NNW
ARGOS 3.3 22:13:33 22° S 22:17:08 69° WSW 22:22:34 10° NNW
Nimbus 7 Rocket 4.4 22:11:18 10° NNE 22:17:24 80° ESE 22:22:27 16° S
COSMOS 2406 4.3 22:12:03 10° SW 22:17:33 46° WNW 22:23:02 10° NNE
SL-27 R/B 3.8 22:15:35 10° SW 22:19:04 41° WNW 22:22:34 10° N
SL-8 Rocket 4.3 22:14:00 10° N 22:20:06 52° ENE 22:23:02 30° SE
Landsat 7 3.9 22:21:40 35° SE 22:23:34 66° ENE 22:28:18 10° N
SPOT 5 3.2 22:23:05 25° SSW 22:25:21 52° W 22:29:36 10° NNW
H-2A R/B 2.6 22:24:49 35° ESE 22:26:12 47° ENE 22:30:33 10° N
Cosmos 2278 3.9 22:20:36 10° NNW 22:26:16 60° ENE 22:28:45 33° SE
Cosmos 2056 Rocket 3.4 22:21:46 10° NNW 22:26:59 89° WSW 22:29:09 36° SSE
Cosmos 2082 Rocket 2.8 22:28:03 33° SE 22:29:17 37° ESE 22:34:28 10° NE
Iridium 82 4.4 22:33:23 10° N 22:36:57 87° E 22:37:24 67° S
Cosmos 1626 Rocket 4.2 22:37:18 36° E 22:37:27 36° E 22:41:24 10° NNE
CZ-4B R/B 4.2 22:33:59 10° NNE 22:38:36 35° E 22:39:09 34° ESE
Terra 1.9 22:37:12 43° SE 22:38:37 66° ENE 22:43:22 10° N
Cosmos 839 Rocket 4.3 22:34:31 10° NNW 22:41:05 90° NE 22:44:54 33° SSE
Cosmos 2341 Rocket 4.3 22:37:40 10° NNW 22:43:57 66° W 22:47:38 26° SSW
Cosmos 2369 3.7 22:39:07 10° NNW 22:44:54 83° ENE 22:46:58 41° SSE
Cosmos 967 Rocket 4.4 22:39:05 10° SSW 22:45:21 87° ESE 22:51:40 10° NNE
Spot 4 4.5 22:45:18 36° ESE 22:46:25 42° ENE 22:50:56 10° N
SPOT 1/Viking Rocket 4.1 22:44:17 28° SSW 22:46:46 51° W 22:51:49 10° NNW
COSMOS 2487 2.5 22:47:21 69° ENE 22:47:21 69° ENE 22:50:41 10° NNE
Tiangong 2 3.0 22:44:18 10° WSW 22:45:36 22° WSW 22:45:36 22° WSW
Cosmos 1437 Rocket 4.1 22:44:42 10° NNW 22:48:10 33° W 22:49:25 26° SW
Cosmos 1959 Rocket 4.5 22:44:36 10° N 22:51:00 76° E 22:53:30 39° SSE
SL-08 R/B 4.5 22:44:57 10° N 22:51:03 66° E 22:53:11 41° SSE
SL-16 R/B 4.5 22:51:22 10° NNE 22:54:18 14° NE 22:57:12 10° ENE
Cosmos 1697 Rocket 3.1 22:49:08 10° NNW 22:54:37 51° ENE 22:56:25 37° ESE
Cosmos 1953 4.5 22:52:44 10° NNE 22:55:12 15° ENE 22:55:13 15° ENE
IGS 5A 3.3 22:56:43 66° S 22:57:17 84° WSW 23:01:28 10° NNW
Cosmos 1452 Rocket 3.5 22:53:59 10° NNW 22:59:16 74° ENE 23:00:34 51° SE
ISS -2.7 22:56:31 10° WSW 22:59:41 45° NNW 23:02:53 10° NE
Cosmos 2218 Rocket 3.9 22:54:11 10° N 23:00:22 88° E 23:02:38 42° S
DELTA 2 DEB (DPAF) 4.5 23:01:37 48° E 23:02:09 51° ENE 23:06:31 10° N
Cosmos 1271 Rocket 3.9 23:02:23 10° N 23:05:37 33° ENE 23:05:37 33° ENE
Cosmos 2228 3.5 23:01:53 10° NNW 23:06:04 51° W 23:06:54 44° SW
deb Chang Zheng 4 3.6 23:06:24 10° N 23:10:43 76° WNW 23:11:26 59° SW
Cosmos 1602 Rocket 3.3 23:10:37 77° SSE 23:10:52 82° E 23:15:13 10° N
Cosmos 921 Rocket 3.8 23:07:54 10° NNW 23:12:09 42° W 23:12:53 38° SW
Cosmos 1833 Rocket 2.5 23:11:23 47° S 23:13:03 79° ESE 23:18:43 10° NNE
Cosmos 1656 3.5 23:09:38 10° NNW 23:15:06 80° WSW 23:16:17 56° S
Cosmos 1066 Rocket 4.4 23:15:05 36° SSW 23:17:17 66° WNW 23:22:53 10° N
Lacrosse 5 rocket 4.4 23:16:24 10° NNW 23:19:14 16° NNE 23:22:03 10° NE
Meteor 1-21 4.2 23:19:44 55° SE 23:20:45 66° E 23:26:26 10° NNE
SL-19 R/B 4.4 23:15:24 10° N 23:20:46 66° WNW 23:22:49 37° SW
Cosmos 468 4.4 23:24:10 62° S 23:25:03 83° ESE 23:30:23 10° NNE
CZ-4 R/B 4.0 23:20:13 10° N 23:25:14 73° WNW 23:26:31 50° SW
Cosmos 1766 3.4 23:21:40 10° N 23:25:11 70° N 23:25:11 70° N
Nadezhda 3 Rocket 4.1 23:29:12 51° SE 23:30:37 63° E 23:36:54 10° NNE
USA 267 3.1 23:24:13 10° NE 23:30:45 71° SE 23:34:02 32° SSW
Meteor 1-4 Rocket 3.7 23:27:23 10° NNW 23:30:20 37° WNW 23:30:20 37° WNW
Meteor 2-14 Rocket 4.4 23:27:31 10° NNW 23:33:36 76° W 23:35:09 52° SSW
Cosmos 1758 4.2 23:30:37 10° N 23:33:51 41° NE 23:33:51 41° NE
H-2A R/B 3.9 23:33:29 16° WSW 23:35:19 20° W 23:38:55 10° NW
Cosmos 1980 Rocket 2.2 23:35:49 10° NNW 23:41:31 73° ENE 23:42:26 60° ESE
Cosmos 1470 4.4 23:39:37 10° NNE 23:42:26 26° ENE 23:42:26 26° ENE
SME Rocket 3.6 23:46:35 63° SE 23:47:19 73° ENE 23:51:42 10° N
SeaSat 1 2.8 23:46:39 50° E 23:47:20 55° ENE 23:52:09 10° NNW
Cosmos 1821 Rocket 4.1 23:42:50 10° N 23:49:03 62° E 23:50:17 52° SE
Cosmos 2322 Rocket 3.5 23:44:42 10° N 23:49:49 33° NE 23:51:42 27° E
